Home   Weather   Cambridge   Past weeks

Flag for USA Past Weather in Cambridge, Massachusetts, USA — Yesterday and Last 2 Weeks

Now
46 °F

Light rain. Mostly cloudy.


Feels Like: 40 °F
Forecast: 46 / 56 °F
Wind: 13 mph from East

Location: Logan International Airport

Current Time: Apr 30, 2017 at 2:51:29 pm

Latest Report: Apr 30, 2017 at 1:54 pm


Visibility: 10 mi

Pressure: 30.33 "Hg

Humidity: 66%

Dew Point: 35 °F

Location of CambridgeLocation

Past Weather in Cambridge — Graph

°F

Cambridge Temperature Yesterday

Maximum temperature yesterday: 83 °F (at 2:54 pm)
Minimum temperature yesterday: 61 °F (at 3:54 am)
Average temperature yesterday: 72 °F

High & Low Weather Summary for the Past Weeks

 TemperatureHumidityPressure
High85 °F (Apr 16, 12:54 pm)100% (Apr 20, 11:34 pm)30.60 "Hg (Apr 20, 11:34 pm)
Low39 °F (Apr 19, 4:54 am)23% (Apr 17, 3:54 pm)29.62 "Hg (Apr 16, 6:54 pm)
Average53 °F78%30.07 "Hg
* Reported Apr 15 12:54 pm — Apr 30 12:54 pm, Cambridge, Weather by CustomWeather, © 2017

Note: Actual official high and low records may vary slightly from our data, if they occured in-between our weather recording intervals... More about our weather records

Advertising

Cambridge Weather History for the Previous 24 Hours

Scroll right to see more
 ConditionsComfort  
Time TempWeatherWind HumidityBarometerVisibility
12:54 pm
Sun, Apr 30
50 °FBroken clouds.14 mph59%30.31 "Hg10 mi
11:54 am49 °FScattered clouds.14 mph61%30.32 "Hg10 mi
10:54 am49 °FPartly sunny.16 mph57%30.30 "Hg10 mi
9:54 am50 °FPartly sunny.17 mph57%30.29 "Hg10 mi
8:54 am49 °FPartly sunny.16 mph61%30.29 "Hg10 mi
7:54 am51 °FPassing clouds.9 mph42%30.28 "Hg10 mi
6:54 am50 °FPassing clouds.13 mph44%30.27 "Hg10 mi
5:54 am51 °FPassing clouds.12 mph42%30.22 "Hg10 mi
4:54 am53 °FPassing clouds.14 mph47%30.18 "Hg10 mi
3:54 am57 °FClear.13 mph44%30.15 "Hg10 mi
2:54 am60 °FClear.18 mph41%30.13 "Hg10 mi
1:54 am62 °FClear.14 mph46%30.10 "Hg10 mi
12:54 am64 °FClear.14 mph43%30.07 "Hg10 mi
11:54 pm
Sat, Apr 29
66 °FClear.13 mph40%30.03 "Hg10 mi
10:54 pm68 °FPassing clouds.15 mph39%30.01 "Hg10 mi
9:54 pm70 °FPassing clouds.14 mph42%29.97 "Hg10 mi
8:54 pm71 °FPassing clouds.21 mph44%29.94 "Hg10 mi
7:54 pm75 °FPartly cloudy.15 mph42%29.89 "Hg10 mi
6:54 pm76 °FMostly cloudy.17 mph43%29.88 "Hg10 mi
5:54 pm79 °FMore clouds than sun.24 mph42%29.88 "Hg10 mi
4:54 pm83 °FMore clouds than sun.17 mph40%29.83 "Hg10 mi
3:54 pm83 °FCloudy.21 mph41%29.80 "Hg10 mi
2:54 pm83 °FCloudy.20 mph43%29.82 "Hg10 mi
Weather by CustomWeather, © 2017

See weather overviewHow to use our weather pages